Weather History for Faith, SD

Change the Weather History Date:

Friday, February 15, 2013

  Actual Average Record
Temperature  
Mean Temperature 23 °F 23 °F  
Max Temperature 32 °F 33 °F 56 °F (2011)
Min Temperature 14 °F 14 °F -16 °F (2007)
Degree Days  
Heating Degree Days 42 42  
Month to date heating degree days 517 645  
Since 1 July heating degree days 4833 5174  
Cooling Degree Days 0 0  
Month to date cooling degree days 0 0  
Year to date cooling degree days 0 0  
Moisture  
Dew Point 12 °F    
Average Humidity 64    
Maximum Humidity 88    
Minimum Humidity 39    
Precipitation  
Precipitation 0.00 in 0.01 in 0.01 in (2005)
Month to date precipitation 0.06 0.26  
Year to date precipitation 0.44 0.46  
Sea Level Pressure  
Sea Level Pressure 30.37 in    
Wind  
Wind Speed 12 mph (NW)    
Max Wind Speed 21 mph    
Max Gust Speed 30 mph    
T = Trace of Precipitation, MM = Missing Value Source: NWS Daily Summary

Daily Weather History Graph

Daily Weather History Graph

Search for Another Location

Airport:

Trip Planner

Search our weather history database for the weather conditions in past years. The results will help you decide how hot, cold, wet, or windy it might be!

Date:

Astronomy

Feb. 15, 2013 Rise Set
Actual Time 6:48 AM MST 5:16 PM MST
Civil Twilight 6:18 AM MST 5:46 PM MST
Nautical Twilight 5:44 AM MST 6:21 PM MST
Astronomical Twilight 5:10 AM MST 6:55 PM MST
Moon 9:08 AM MST (2/15) 11:38 PM MST (2/15)
Length of Visible Light 11h 28m
Length of Day
10h 27m
Waxing Crescent, 31% of the Moon is Illuminated
Feb 15
Waxing Crescent
Feb 17
First Quarter
Feb 25
Full
Mar 4
Last Quarter
Mar 11
New

Hourly Weather History & Observations

Time (MST) Temp. Windchill Dew Point Humidity Pressure Visibility Wind Dir Wind Speed Gust Speed Precip Events Conditions
12:56 AM 16.0 °F 3.6 °F 12.0 °F 84% 30.38 in - WNW 10.4 mph - N/A   Unknown
1:56 AM 16.0 °F 4.4 °F 12.9 °F 88% 30.38 in - WNW 9.2 mph - N/A   Unknown
2:56 AM 19.9 °F 8.6 °F 15.1 °F 81% 30.35 in - WNW 10.4 mph - N/A   Unknown
3:56 AM 19.9 °F 4.8 °F 14.0 °F 78% 30.37 in - NW 18.4 mph - N/A   Unknown
4:56 AM 16.0 °F 2.9 °F 12.0 °F 84% 30.39 in - NW 11.5 mph - N/A   Unknown
5:56 AM - - - N/A% - - North - - N/A   Unknown
6:56 AM 15.1 °F 1.1 °F 10.0 °F 80% 30.42 in - NW 12.7 mph - N/A   Unknown
7:56 AM 18.0 °F 5.4 °F 12.0 °F 78% 30.43 in - WNW 11.5 mph - N/A   Unknown
8:56 AM 21.0 °F 8.1 °F 12.9 °F 71% 30.45 in - NW 13.8 mph - N/A   Unknown
9:56 AM 24.1 °F 10.6 °F 15.1 °F 69% 30.43 in - NNW 17.3 mph - N/A   Unknown
10:56 AM 27.0 °F 13.2 °F 14.0 °F 58% 30.45 in - NW 20.7 mph - N/A   Unknown
11:56 AM 28.9 °F 17.3 °F 14.0 °F 54% 30.43 in - North 16.1 mph - N/A   Unknown
12:56 PM 30.0 °F 18.3 °F 12.0 °F 47% 30.42 in - NNW 17.3 mph - N/A   Unknown
1:56 PM 28.9 °F 17.7 °F 10.9 °F 47% 30.40 in - NNW 15.0 mph - N/A   Unknown
2:56 PM 30.0 °F 20.0 °F 10.0 °F 43% 30.39 in - North 12.7 mph - N/A   Unknown
3:56 PM 32.0 °F 23.0 °F 10.9 °F 42% 30.38 in - NNW 11.5 mph - N/A   Unknown
4:56 PM 28.0 °F 24.2 °F 10.9 °F 49% 30.37 in - North 3.5 mph - N/A   Unknown
5:56 PM 24.1 °F 18.2 °F 10.9 °F 57% 30.37 in - SSE 4.6 mph - N/A   Unknown
6:56 PM 21.0 °F 10.6 °F 12.0 °F 68% 30.34 in - SSE 9.2 mph - N/A   Unknown
7:56 PM 19.9 °F 8.6 °F 10.9 °F 68% 30.32 in - South 10.4 mph - N/A   Unknown
8:56 PM 21.0 °F 9.3 °F 10.9 °F 65% 30.27 in - South 11.5 mph - N/A   Unknown
9:56 PM 21.9 °F 10.4 °F 12.0 °F 66% 30.23 in - SSW 11.5 mph - N/A   Unknown
11:56 PM 26.1 °F 17.6 °F 16.0 °F 66% 30.15 in - SSW 8.1 mph - N/A   Unknown